THOR ABLESTAR DEB *, 13502

Orbit data source: Space-Track

THOR ABLESTAR DEB *, 13502 is space debris in LEO originally from a launch on Thu, 29 Jun 1961 UTC launched from the Air Force Eastern Test Range (AFETR). Debris objects in space refer to the collection of defunct objects orbiting the Earth. Examples of debris include non-operational satellites, rocket bodies, and fragments generated from explosions, collisions, or faulty payload assembly.

Loading next visibility...
Identifier
13502, 1961-015KT
Orbit
LEO
Country
Flag of USUS
Related business
Manufacturer
Unknown
Mission
Spacecraft
Bus & Motor
Unknown
Mass
Unknown
Launch date (UTC)
1961-06-29 (65 years ago)
Launch vehicle
Unknown
Launch site
Air Force Eastern Test Range (AFETR)
Object type
Payload
Rocket body
Debris
Shape & HBR
Unknown shape, 0.1 m
Radar Cross Section
Medium (>0.1 m² and <1 m²)

Expand to show TLE details & history
Last TLE update: 8 hours ago

TLE from 8 hours ago
0 THOR ABLESTAR DEB *
1 13502U 61015KT  26195.51209319  .00001821  00000-0  15006-2 0  9993
2 13502  66.4428 108.7598 0256515 219.3396 321.2978 13.77221576154539
Epoch: 2026-07-14T12:17Z
TLE epoch observation values (Epoch: 2026-07-14T12:17:24.851Z)
Latitude
1.05101°
Longitude
171.5692°
Altitude
830.426 km
Speed
7.511 km/s
True Right ascension
19h 13m 12s
True Declination
1° 02' 41"
Sunlit
Object was in full shadow at epoch
Visualization orbit readout
Latitude
Unknown
Longitude
Unknown
Altitude
Unknown
Speed
Unknown
Apparent Right ascension
Unknown
Apparent Declination
Unknown
Sunlit
N/A
Visualization observer readout
Local Sidereal Time
08:49:59
Azimuth
Unknown
Elevation
Unknown
Doppler factor
Unknown
Orbital elements
Apogee altitude
1,160.748 km
Perigee altitude
783.654 km
Semi-major axis
7,350.338 km
Eccentricity
0.02565
Inclination
66.4428°
RAAN
108.7598°
Arg. of periapsis
219.3396°
True anomaly
319.41306°
Mean anomaly
321.2978°
Eccentric anomaly
320.36018°
Mean motion
3.44415 °/min
Orbital period
104.53 mins
BSTAR
0.0015006
Loading maneuver chart data...
Computing Atmospheric mass density...

Documentation

Showing up to 5 results
|